[[{"header":{"parameterUnit":"m.s-1","parameterCategory":1,"la1":30.2991,"la2":30.254,"lo1":-89.0895,"lo2":-89.0444,"dy":0.0017,"dx":0.0017,"nx":28,"ny":28,"refTime":"2024-07-06T03:00:00:Z","depth":0,"parameterNumber":2,"parameterNumberName":"U-component_of_WINDS"},"data":[0,0,0,0,0,0,0,0,0,0,0,0,0,0,0,0,0,0,0,0,0,0,0,0,0,0,0,0,0,0,0,0,0,0,0,0,0,0,0,0,0,0,0,0,0,0,0,0,0,0,0,0,0,0,0,0,0,0,1.2143,1.2145,0,1.2379,1.2382,1.2384,1.2465,1.2464,1.2463,1.2462,1.2709,1.2716,1.2724,0,0,0,0,0,0,0,0,0,0,0,0,0,1.1765,1.1771,1.2142,1.2145,1.2148,1.2379,1.2382,1.2385,1.2465,1.2464,1.2463,1.2462,1.2707,1.2715,1.2724,0,0,0,0,0,0,0,0,0,0,0,0,0,1.1958,1.1773,1.2142,1.2216,1.2225,1.2378,1.2382,1.2386,1.2466,1.2464,1.2463,1.2461,1.2704,1.2715,1.2726,1.2824,0,0,1.276,1.2765,0,0,0,0,0,0,0,0,1.1947,1.1972,1.2202,1.2211,1.2221,1.2391,1.2339,1.2533,1.2466,1.2374,1.2462,1.2461,1.2605,1.2624,1.2672,1.2835,1.2846,1.2761,1.2768,1.2772,1.2776,0,0,0,0,0,0,0,1.1933,1.1962,1.2236,1.2205,1.2217,1.2239,1.2265,1.2376,1.2495,1.2382,1.2389,1.2415,1.261,1.2661,1.2678,1.2849,1.2761,1.277,1.2777,1.2782,1.3106,1.3108,0,0,0,0,0,0,1.1907,1.195,1.2229,1.2243,1.2078,1.2247,1.2276,1.2338,1.2494,1.2516,1.2416,1.2418,1.2642,1.2665,1.2687,1.2813,1.2772,1.2783,1.2789,1.3104,1.3107,1.3109,0,0,0,0,0,0,1.1898,1.1931,1.2219,1.2099,1.2137,1.2255,1.2324,1.2344,1.2394,1.252,1.2541,1.2446,1.2642,1.2671,1.2789,1.2822,1.2788,1.2798,1.3102,1.3105,1.3108,1.3063,0,0,0,0,0,0,1.1887,1.1927,1.1965,1.2099,1.2143,1.2315,1.2326,1.2349,1.2413,1.2418,1.2553,1.2575,1.2643,1.2772,1.28,1.2837,1.2807,1.31,1.3103,1.3107,1.3062,1.3064,1.3066,0,0,0,0,0,1.1873,1.1944,1.1966,1.1999,1.2192,1.2317,1.2343,1.2419,1.2415,1.2455,1.2535,1.257,1.2814,1.2783,1.2816,1.2856,1.3098,1.3102,1.3107,1.3062,1.3064,1.3066,0,0,0,0,0,0,1.1812,1.1962,1.1989,1.2104,1.2197,1.233,1.2382,1.2419,1.2516,1.2516,1.2608,1.2638,1.2749,1.2815,1.2778,1.296,1.2958,1.2969,1.2913,1.2916,1.2918,1.29,1.2816,0,0,0,0,0,1.1811,1.1899,1.2027,1.2116,1.2161,1.2263,1.2321,1.2371,1.2472,1.2512,1.2601,1.2698,1.2797,1.286,1.2958,1.3072,1.3104,1.3117,1.3118,1.3119,1.3128,1.3194,1.3202,1.3123,1.3123,1.3123,0,0,1.1811,1.1905,1.1955,1.2106,1.2184,1.2274,1.2296,1.239,1.2459,1.2527,1.2643,1.2712,1.2827,1.2943,1.2999,1.3002,1.3156,1.3125,1.3124,1.3133,1.3199,1.3207,1.3213,1.3126,1.3125,1.3125,0,0,1.1858,1.1937,1.202,1.2098,1.2215,1.2283,1.2302,1.2431,1.2479,1.2596,1.2649,1.2733,1.2901,1.2981,1.3043,1.312,1.3157,1.315,1.3159,1.3223,1.3229,1.3235,1.3263,1.3272,1.3158,1.3158,1.3158,0,1.1844,1.198,1.2059,1.2151,1.2216,1.2281,1.2367,1.2439,1.2582,1.2626,1.2627,1.2839,1.2921,1.3057,1.3076,1.3124,1.3151,1.3135,1.3222,1.3228,1.3235,1.3263,1.3273,1.3156,1.3156,1.3157,1.3157,0,1.1958,1.2052,1.2106,1.2241,1.2313,1.2401,1.2494,1.2558,1.2602,1.267,1.279,1.289,1.301,1.3046,1.3091,1.3189,1.3187,1.3203,1.3203,1.324,1.3268,1.3279,1.3154,1.3154,1.3155,1.3155,0,0,1.1972,1.2149,1.2168,1.223,1.2365,1.244,1.2532,1.2647,1.27,1.2797,1.2877,1.3018,1.3034,1.3105,1.3159,1.3215,1.3271,1.3225,1.3229,1.323,1.3386,1.3373,1.3384,1.3295,1.3298,1.33,1.3377,0,1.2036,1.2201,1.2275,1.2408,1.2496,1.2559,1.264,1.2732,1.2798,1.2884,1.2958,1.3056,1.3069,1.3112,1.317,1.3251,1.3303,1.3247,1.3372,1.3376,1.3341,1.3398,1.3385,1.3453,1.3388,1.339,1.3391,0,1.2133,1.2229,1.237,1.2494,1.2534,1.2605,1.2717,1.2798,1.2904,1.2948,1.3027,1.3079,1.318,1.3173,1.3313,1.3273,1.3329,1.3377,1.3381,1.3396,1.3385,1.3415,1.3476,1.3486,1.3409,1.3408,1.3406,0,1.2129,1.2294,1.24,1.2452,1.2599,1.2647,1.2711,1.2816,1.2881,1.2979,1.3023,1.3132,1.3192,1.3276,1.3357,1.3344,1.349,1.3489,1.3531,1.3529,1.3559,1.3556,1.363,1.3594,1.3594,1.3594,1.3593,0,1.2193,1.2277,1.24,1.2465,1.2562,1.2646,1.274,1.2809,1.2901,1.2982,1.3044,1.3119,1.3221,1.3309,1.3373,1.348,1.3507,1.3547,1.3563,1.3541,1.3536,1.3579,1.3577,1.3597,1.3596,1.3595,1.3595,0,1.2205,1.2291,1.2411,1.254,1.2575,1.264,1.2752,1.2819,1.2888,1.2989,1.3018,1.3127,1.3234,1.3323,1.3464,1.3507,1.3619,1.3638,1.3582,1.3591,1.3627,1.3623,1.3732,1.3751,1.3701,1.3702,1.3702,0,1.2241,1.2307,1.2443,1.2501,1.2564,1.2656,1.2723,1.2809,1.2876,1.3002,1.3053,1.3164,1.3258,1.3426,1.3519,1.3627,1.3649,1.368,1.3666,1.3643,1.365,1.3645,1.3653,1.3681,1.3681,1.3681,1.3681,0,1.2294,1.2333,1.2426,1.2533,1.261,1.27,1.2791,1.2835,1.2938,1.301,1.312,1.3192,1.3335,1.3446,1.3564,1.3632,1.3674,1.3685,1.37,1.3679,1.3644,1.3664,1.3585,1.3682,1.3682,1.3682,1.3682,1.3682,1.232,1.2381,1.2487,1.2588,1.2665,1.2749,1.2818,1.2895,1.2988,1.311,1.3156,1.3268,1.3374,1.3537,1.3605,1.3695,1.3701,1.3723,1.3729,1.3733,1.373,1.363,1.3717,1.3717,1.3718,1.3718,1.3718,0,1.2376,1.2447,1.254,1.2665,1.2744,1.2776,1.2879,1.2944,1.3041,1.3136,1.3226,1.3353,1.346,1.3561,1.3673,1.3726,1.3749,1.3753,1.375,1.3765,1.3719,1.3694,1.3733,1.3733,1.3733,1.3733,1.3733,1.3733,1.2415,1.2522,1.2573,1.2719,1.2791,1.29,1.2956,1.3034,1.311,1.3247,1.3336,1.3401,1.3499,1.3619,1.3719,1.3746,1.3785,1.3784,1.3816,1.3771,1.3768,1.3766,1.3743,1.3792,1.3792,1.3855,1.3856,1.3856]},{"header":{"parameterUnit":"m.s-1","parameterCategory":1,"la1":30.2991,"la2":30.254,"lo1":-89.0895,"lo2":-89.0444,"dy":0.0017,"dx":0.0017,"nx":28,"ny":28,"refTime":"2024-07-06T03:00:00:Z","depth":0,"parameterNumber":3,"parameterNumberName":"V-component_of_WINDS"},"data":[0,0,0,0,0,0,0,0,0,0,0,0,0,0,0,0,0,0,0,0,0,0,0,0,0,0,0,0,0,0,0,0,0,0,0,0,0,0,0,0,0,0,0,0,0,0,0,0,0,0,0,0,0,0,0,0,0,0,4.008,4.008,0,4.0051,4.005,4.005,4.002,4.002,4.002,4.0019,3.9986,3.9986,3.9985,0,0,0,0,0,0,0,0,0,0,0,0,0,4.0109,4.0109,4.008,4.008,4.0079,4.0051,4.005,4.005,4.002,4.002,4.0019,4.0019,3.9986,3.9986,3.9985,0,0,0,0,0,0,0,0,0,0,0,0,0,4.009,4.0109,4.008,4.0061,4.0059,4.0051,4.005,4.005,4.002,4.002,4.0019,4.0019,3.9987,3.9986,3.9985,3.9992,0,0,3.9983,3.9982,0,0,0,0,0,0,0,0,4.0091,4.0089,4.0064,4.0063,4.006,4.0039,4.0048,4.003,4.0021,4.0035,4.0019,4.0018,4.0004,4.0002,3.9997,3.999,3.9989,3.9983,3.9982,3.9982,3.9982,0,0,0,0,0,0,0,4.0092,4.009,4.0068,4.0064,4.0062,4.0054,4.005,4.0045,4.0023,4.0034,4.0032,4.0029,4.0003,3.9998,3.9996,3.9988,3.9983,3.9982,3.9981,3.9981,3.9986,3.9987,0,0,0,0,0,0,4.0097,4.0091,4.0069,4.0067,4.0075,4.0054,4.005,4.0046,4.0023,4.0019,4.0029,4.0027,4.0,3.9997,3.9995,4.0002,3.9982,3.9981,3.9981,3.9985,3.9986,3.9987,0,0,0,0,0,0,4.0098,4.0095,4.007,4.0079,4.0075,4.0054,4.005,4.0046,4.0041,4.002,4.0015,4.0029,3.9999,3.9996,3.9993,4.0,3.9981,3.998,3.9985,3.9986,3.9987,4.0015,0,0,0,0,0,0,4.0099,4.0096,4.0098,4.0079,4.0075,4.007,4.005,4.0046,4.004,4.0038,4.0018,4.0014,3.9998,3.9995,3.9992,3.9999,3.9979,3.9984,3.9985,3.9986,4.0013,4.0017,4.002,0,0,0,0,0,4.01,4.0107,4.0099,4.0096,4.0078,4.007,4.0068,4.005,4.0041,4.0043,4.003,4.0015,4.0,3.9994,3.9992,3.9998,3.9983,3.9985,3.9986,4.0012,4.0016,4.002,0,0,0,0,0,0,4.0126,4.0104,4.0095,4.0096,4.0085,4.0065,4.0067,4.0055,4.0046,4.0044,4.0022,4.0018,4.0018,4.0007,4.0002,4.0004,3.999,3.9991,4.001,4.0014,4.0017,4.0019,3.9979,0,0,0,0,0,4.0133,4.0129,4.0109,4.0112,4.0108,4.0089,4.0085,4.0073,4.006,4.0055,4.0041,4.0029,4.0022,4.0018,4.001,4.0012,4.0007,4.0015,4.0018,4.0021,4.0022,4.0023,4.0026,3.9991,3.9991,3.9991,0,0,4.0145,4.0132,4.0131,4.0117,4.0108,4.0104,4.0085,4.0082,4.0079,4.0054,4.0051,4.0041,4.0026,4.0026,4.0025,4.0017,4.0031,4.0023,4.0025,4.0024,4.0025,4.0028,4.0031,3.9992,3.9992,3.9992,0,0,4.0165,4.0156,4.0157,4.0148,4.0135,4.0122,4.0123,4.0105,4.0097,4.0094,4.0076,4.0072,4.006,4.005,4.0044,4.0062,4.0048,4.006,4.0077,4.0078,4.0081,4.0083,4.009,4.0092,4.0061,4.0061,4.0061,0,4.0182,4.0176,4.0159,4.0158,4.0152,4.0132,4.0133,4.0125,4.0109,4.0105,4.0097,4.0082,4.0071,4.0069,4.0074,4.0069,4.0069,4.0062,4.0082,4.0084,4.0086,4.0092,4.0094,4.0063,4.0063,4.0063,4.0062,0,4.0198,4.0194,4.0197,4.0183,4.0178,4.0178,4.0161,4.0157,4.0146,4.0135,4.0132,4.0118,4.0107,4.0105,4.0094,4.0102,4.0097,4.0086,4.0071,4.0091,4.0096,4.0099,4.0065,4.0065,4.0064,4.0064,0,0,4.0233,4.0211,4.0212,4.0206,4.019,4.0187,4.0186,4.0176,4.0174,4.0164,4.0162,4.0153,4.0143,4.0136,4.0123,4.0124,4.014,4.0113,4.0112,4.0118,4.0148,4.0157,4.016,4.0131,4.0132,4.0132,4.015,0,4.025,4.0248,4.0233,4.0235,4.0231,4.0213,4.0212,4.0202,4.0191,4.0186,4.0174,4.0168,4.0155,4.0151,4.0151,4.0138,4.0146,4.0137,4.0129,4.0129,4.0133,4.0163,4.0171,4.0189,4.0152,4.0152,4.0152,0,4.027,4.0263,4.0264,4.0249,4.0247,4.0247,4.0237,4.0233,4.0221,4.0214,4.0207,4.0193,4.019,4.0177,4.0174,4.0168,4.0164,4.0157,4.0158,4.0156,4.0141,4.0161,4.0194,4.0196,4.0155,4.0155,4.0155,0,4.0296,4.0286,4.0286,4.0281,4.0263,4.0264,4.0256,4.0244,4.024,4.0231,4.0228,4.0219,4.0214,4.0208,4.0192,4.0184,4.019,4.0176,4.0183,4.0184,4.0185,4.0185,4.0217,4.0183,4.0183,4.0183,4.0183,0,4.0316,4.0318,4.0297,4.0297,4.0299,4.0282,4.0283,4.0274,4.0264,4.0261,4.0244,4.0242,4.0222,4.0217,4.0205,4.0204,4.0202,4.0195,4.0192,4.0196,4.0197,4.0193,4.0191,4.0184,4.0183,4.0183,4.0183,0,4.0344,4.0331,4.0329,4.0313,4.0309,4.0311,4.0297,4.0296,4.0285,4.0283,4.0281,4.0263,4.0258,4.0241,4.0231,4.0223,4.0225,4.0219,4.0229,4.0227,4.0236,4.0235,4.0266,4.0269,4.0233,4.0234,4.0234,0,4.0358,4.036,4.0344,4.0342,4.0335,4.0332,4.0328,4.0311,4.0307,4.0295,4.0296,4.0289,4.0282,4.0273,4.0259,4.0251,4.0245,4.0256,4.0243,4.0248,4.0245,4.0245,4.0245,4.0259,4.0259,4.026,4.026,0,4.0385,4.0378,4.0373,4.0366,4.0362,4.0355,4.0348,4.0347,4.0328,4.0325,4.0319,4.0315,4.0305,4.0298,4.0288,4.028,4.0267,4.0264,4.0266,4.027,4.0276,4.0273,4.0237,4.0263,4.0263,4.0263,4.0263,4.0262,4.0406,4.0406,4.0396,4.0391,4.0384,4.0378,4.0377,4.0366,4.0361,4.0353,4.0343,4.0339,4.0328,4.0313,4.0306,4.0302,4.0295,4.0297,4.0298,4.0298,4.0301,4.0278,4.03,4.03,4.03,4.03,4.03,0,4.0431,4.0424,4.042,4.0411,4.0407,4.0397,4.0388,4.0385,4.0382,4.0373,4.0368,4.0362,4.0355,4.0342,4.0334,4.0333,4.0327,4.0332,4.0332,4.033,4.0307,4.0307,4.0337,4.0337,4.0337,4.0337,4.0337,4.0337,4.0444,4.0445,4.0437,4.0434,4.0426,4.0423,4.0419,4.0413,4.0406,4.04,4.0395,4.0387,4.0376,4.0368,4.0361,4.0358,4.0355,4.0362,4.0356,4.0335,4.0331,4.0328,4.0328,4.0362,4.0362,4.0379,4.0379,4.038]}]]